Lapse_Rate
-2.1 -3.2 -2.1 -1.4 -0.9 -0.4 -0.1 -0.2 -0.3 0.2 0.7 0.7 1.0 1.1 1.0 1.1 1.7 1.7 2.3 2.8 3.2 1.8 2.4 3.4 3.2 3.1 3.4 2.1 1.4 5.1 4.6 4.2 4.6 4.7 0.5 -1.2 -1.7 -1.5 -1.8 -0.8 0.6 0.6 0.9
-3.5 -2.9 -1.9 -1.2 -0.9 -0.7 -0.3 0.0 0.1 -0.4 0.3 0.9 0.8 1.0 1.4 1.6 1.7 1.8 2.3 2.9 3.4 3.2 2.3 2.4 3.2 4.2 3.2 3.3 2.3 3.8 4.5 3.5 4.4 4.6 2.0 -0.1 -0.7 -1.3 -2.6 -2.0 -1.2 0.2 0.6
-5.6 -3.0 -2.2 -1.4 -1.2 -1.1 -0.5 -0.1 0.1 -0.0 -0.1 0.1 0.8 1.0 1.1 1.7 1.9 2.1 2.3 3.0 3.8 4.6 4.7 3.4 3.9 3.7 3.8 2.4 3.1 2.8 5.4 3.5 2.6 1.5 1.8 0.1 -0.7 -1.4 -2.8 -3.3 -3.3 -1.7 0.6
-6.5 -4.2 -2.9 -2.6 -1.7 -1.3 -0.8 -0.2 0.2 0.3 0.1 0.2 0.8 1.3 2.0 1.8 2.1 2.5 3.1 3.2 3.6 4.7 5.0 5.4 4.7 4.5 4.7 4.1 3.5 2.9 3.5 4.5 2.6 1.7 0.7 1.0 0.6 -1.1 -1.5 -2.3 -3.2 -3.4 -1.0
-5.9 -5.6 -4.0 -2.9 -2.3 -1.6 -0.6 -0.1 0.2 0.7 0.9 0.8 1.3 1.3 1.7 2.2 3.4 3.5 3.9 4.1 4.6 5.1 5.8 5.9 6.1 5.6 5.0 5.2 3.7 3.9 4.1 4.6 5.0 2.8 1.6 0.1 0.2 0.1 0.3 -2.3 -2.3 -2.9 -1.8
-5.4 -4.9 -5.4 -4.8 -2.9 -1.3 -0.6 0.0 0.3 0.7 0.5 0.8 1.0 1.2 1.4 2.7 3.9 4.7 5.4 5.6 5.6 6.3 5.8 4.7 4.7 4.8 5.1 5.7 6.4 5.2 4.8 4.2 5.1 5.1 3.0 2.2 1.9 1.5 1.7 -0.6 -2.9 -3.1 -0.6
-5.3 -5.4 -5.4 -5.7 -4.4 -2.4 -0.9 -0.3 0.3 0.1 -0.1 0.3 0.7 0.9 1.2 1.6 3.7 5.0 5.6 5.7 6.0 6.1 6.4 5.8 4.6 5.4 5.7 5.0 5.3 5.5 5.1 4.1 5.1 6.1 4.7 2.8 2.8 0.9 1.1 1.4 -0.2 -2.5 -4.1
-5.1 -5.3 -5.5 -5.4 -5.3 -3.7 -2.1 -0.9 -0.5 -0.2 -0.2 0.1 0.5 1.1 1.4 2.1 3.9 5.0 5.7 6.1 5.2 5.3 6.7 7.1 6.9 5.2 5.6 7.0 6.2 5.9 5.0 4.6 4.8 5.4 5.9 5.0 3.7 3.3 1.7 1.5 1.5 -1.8 -2.6
-4.9 -4.7 -5.5 -5.5 -5.1 -5.0 -3.1 -2.1 -1.2 -0.9 -0.2 0.5 1.4 1.7 2.1 2.2 3.5 5.0 5.9 5.4 6.2 6.1 6.6 6.9 8.9 8.9 8.7 8.8 7.7 7.2 6.2 4.9 4.6 5.7 5.6 5.5 3.8 1.8 1.6 1.7 0.8 1.3 -1.1
-5.1 -4.3 -5.0 -5.3 -4.7 -5.0 -4.7 -4.5 -2.5 -0.8 1.2 2.4 2.6 2.8 3.1 3.4 4.0 4.9 6.1 6.8 7.0 7.0 6.8 7.3 8.3 9.2 9.2 9.0 8.3 7.9 6.8 5.8 4.4 5.2 6.5 5.0 3.8 1.9 1.3 1.8 1.5 2.0 -2.0
-4.6 -4.1 -4.2 -5.2 -4.6 -5.3 -6.4 -6.8 -3.5 -0.9 1.3 1.6 2.2 2.2 2.3 3.5 4.1 5.9 6.9 8.5 8.2 8.1 8.3 8.1 7.5 8.8 9.4 9.3 8.6 7.7 7.5 7.3 5.9 4.0 5.0 6.3 5.0 2.8 2.0 1.9 1.7 3.5 0.9
-3.1 -2.2 -2.9 -3.8 -3.4 -3.2 -5.7 -5.5 -3.9 -0.7 0.0 1.1 1.6 2.1 3.6 4.7 6.0 6.6 7.7 9.5 9.4 8.8 8.5 8.5 8.2 9.2 9.3 9.1 9.0 8.9 8.9 8.5 6.7 4.4 4.1 5.2 6.2 3.6 2.0 1.9 1.5 2.3 1.6
-1.0 -0.5 -1.8 -1.7 -1.4 -2.6 -5.6 -3.6 -3.4 -1.3 0.3 1.7 3.2 3.4 3.9 5.4 6.1 7.0 7.8 9.5 9.6 8.9 8.7 9.1 9.2 9.1 9.2 9.0 9.1 9.1 8.6 8.0 6.9 5.1 4.7 5.6 6.7 4.6 2.7 0.7 -2.0 -2.5 -2.3
0.8 0.2 -0.5 -1.0 -1.9 -2.7 -0.1 -0.6 -1.8 -1.5 -0.0 2.8 3.7 4.3 4.7 5.8 6.3 6.9 7.9 7.8 8.4 9.2 9.0 8.0 8.8 9.0 9.0 8.8 8.9 8.0 8.1 7.7 6.8 5.6 6.3 5.2 6.4 3.5 1.7 0.2 -0.2 -0.3 0.4
1.5 1.0 0.2 0.4 0.1 -0.4 -0.4 -1.2 -0.0 0.4 0.8 1.3 2.5 4.1 5.1 6.0 7.6 9.2 9.0 8.9 8.8 9.1 9.2 8.7 7.9 7.9 7.7 7.6 7.5 7.1 7.1 6.7 6.0 6.2 6.6 5.9 4.9 2.8 1.8 0.8 1.4 0.2 1.1
1.8 2.5 2.0 1.5 -0.2 0.3 -1.4 -0.6 3.8 6.1 7.1 9.5 9.7 9.0 8.6 9.4 9.7 9.4 9.7 9.7 9.7 9.7 8.7 8.3 7.9 7.9 7.8 7.8 7.7 7.2 7.1 7.2 6.5 5.4 6.4 6.4 4.9 3.9 2.2 0.7 2.0 1.3 1.7
0.5 1.2 0.7 2.7 0.3 -0.9 -0.8 0.5 1.6 2.4 6.5 7.8 9.2 9.6 9.7 9.6 9.6 9.6 9.7 9.7 9.7 9.5 8.3 7.8 7.9 7.9 7.9 8.0 8.1 7.7 7.2 7.4 7.7 5.7 4.2 5.9 4.2 4.0 2.9 1.6 1.6 1.9 2.8
-1.3 2.9 2.9 0.7 0.2 -0.2 1.3 2.6 3.1 3.6 3.9 3.4 5.2 7.5 9.4 9.7 9.7 9.6 9.7 9.6 8.6 8.5 8.1 7.7 7.9 8.3 7.7 7.7 7.4 7.5 7.2 7.4 7.9 7.3 4.4 5.6 4.2 3.8 3.2 1.8 1.6 2.2 2.8
-0.2 -0.3 -0.1 0.4 1.1 2.2 2.7 2.6 3.8 4.6 5.2 5.9 6.2 6.1 6.8 8.7 9.6 9.7 9.7 8.2 7.4 6.8 7.0 7.2 8.2 8.1 7.5 7.1 7.3 8.3 8.0 7.8 7.6 6.8 5.3 4.9 4.5 3.7 4.0 2.9 2.7 3.1 3.4
-1.5 4.5 6.6 3.9 2.7 3.4 4.6 5.4 6.2 6.6 6.6 6.8 6.6 5.8 5.7 6.0 5.1 5.6 5.6 5.9 6.7 7.7 8.1 7.7 7.7 7.3 7.1 7.1 7.6 7.8 7.0 7.1 6.9 5.8 5.6 3.9 5.6 3.9 4.3 4.0 3.7 3.8 3.9
1.8 2.2 6.4 8.3 7.3 6.7 6.4 6.0 6.0 5.7 5.8 6.2 5.9 6.4 9.2 8.2 8.0 8.0 8.1 6.9 6.7 6.9 6.8 6.6 6.5 6.5 6.6 6.6 6.6 7.0 6.8 6.5 6.6 6.6 5.4 3.3 5.8 4.3 4.6 4.7 4.4 3.9 3.0
2.9 3.7 4.0 4.1 4.5 4.9 5.3 5.7 5.8 6.2 6.9 6.6 6.2 6.4 8.6 7.8 7.0 6.3 6.1 5.8 5.1 5.1 5.4 5.5 5.6 5.8 5.9 6.0 6.1 6.4 6.5 6.3 6.3 6.0 5.4 3.5 5.8 4.8 4.3 4.5 4.4 4.3 4.2
5.6 5.1 5.1 4.9 5.1 6.7 7.7 5.6 5.3 5.8 5.8 5.7 5.6 5.6 5.4 5.2 5.1 4.8 4.8 4.7 4.7 4.7 4.8 5.1 5.2 5.1 5.3 5.5 5.9 6.1 6.4 6.0 6.0 6.3 5.3 3.5 5.8 4.9 4.4 4.6 4.6 3.9 4.0
6.1 5.8 6.2 6.6 6.8 6.8 6.6 6.5 6.4 7.3 7.2 6.7 6.3 6.1 6.0 5.9 5.5 5.0 4.4 4.1 4.0 3.9 4.3 4.4 4.6 4.5 4.7 5.1 5.6 5.9 6.1 5.8 5.8 5.2 5.0 4.6 4.3 5.2 4.6 4.4 4.4 3.7 3.8
5.6 4.0 5.3 5.5 4.9 4.7 4.6 4.8 5.1 5.4 5.4 5.2 5.1 5.0 4.9 4.8 4.5 4.0 3.7 3.7 3.6 3.6 3.5 3.9 4.3 4.2 4.3 4.5 4.6 4.8 5.4 5.9 5.0 4.5 4.0 4.0 3.0 5.6 4.3 3.9 3.8 4.1 4.1
3.4 4.1 3.5 3.0 3.2 3.5 3.9 4.2 4.3 4.5 4.4 4.4 4.5 4.6 4.6 4.6 4.2 4.0 3.5 3.3 3.1 3.0 3.0 3.4 3.7 3.9 3.9 4.0 4.2 4.5 5.3 5.3 5.2 5.0 4.9 5.1 3.1 5.6 4.2 4.4 3.8 3.8 3.7
Wind_Speed
6 5 5 4 3 3 2 3 4 7 9 8 9 10 10 10 12 9 9 10 9 9 9 10 12 12 10 7 9 8 8 7 9 7 3 4 5 6 8 17 19 20 20
6 6 5 4 4 3 3 3 5 4 8 9 10 9 8 9 11 9 10 10 11 12 10 11 12 9 12 10 7 15 9 8 7 13 4 4 5 5 5 7 10 15 17
6 6 6 5 4 4 4 3 4 5 6 9 9 7 8 8 9 9 10 10 10 11 11 11 12 12 13 9 12 10 11 5 6 3 4 0 1 2 3 2 3 5 15
7 7 7 6 5 4 3 4 4 5 5 6 8 8 8 10 9 8 9 11 11 11 12 12 11 11 12 11 11 12 13 7 8 5 3 3 2 1 3 3 3 2 3
10 9 8 6 5 4 4 4 4 5 6 8 8 8 10 8 7 8 9 11 12 14 12 12 11 12 18 18 9 13 12 10 7 9 5 2 3 2 7 4 4 3 1
11 11 7 5 5 5 5 5 4 5 4 5 7 7 9 8 16 17 14 10 11 12 14 13 12 18 15 20 21 22 19 13 15 9 9 9 13 7 3 5 3 3 3
12 9 8 6 6 5 5 5 5 4 5 6 8 8 9 9 19 19 19 10 10 11 14 15 12 10 16 12 19 20 21 21 21 15 13 14 13 12 8 6 7 4 3
11 9 7 6 5 4 4 5 4 4 5 6 8 9 9 9 19 20 20 11 10 11 12 14 15 15 13 15 15 14 13 13 13 12 15 15 14 10 14 12 6 4 3
12 11 9 7 6 5 5 5 4 5 6 6 8 9 9 10 20 20 17 11 11 11 11 11 13 15 21 23 15 15 14 14 14 21 29 24 14 17 16 9 9 9 3
11 10 7 7 6 7 6 5 3 3 8 8 10 8 12 12 18 20 15 9 11 9 10 10 18 19 24 23 16 15 13 12 11 12 13 17 14 19 28 16 11 10 4
6 6 5 4 5 4 3 3 2 5 7 7 10 9 10 12 12 19 19 10 9 10 9 9 9 22 24 25 24 14 15 15 17 12 11 12 10 11 12 14 13 12 8
6 5 5 5 5 4 5 3 4 5 6 8 8 8 8 9 16 16 18 20 20 11 11 10 11 23 26 28 23 26 29 24 9 10 11 11 12 11 12 13 16 15 10
8 6 3 3 4 4 3 4 3 4 5 6 7 6 7 9 8 18 20 20 20 14 10 17 27 27 27 22 24 26 26 12 10 10 11 13 13 12 12 8 6 11 8
6 5 3 3 4 4 4 3 3 4 5 6 7 7 7 8 8 8 7 9 18 16 17 13 18 24 27 22 19 15 10 10 11 12 12 11 12 9 10 10 8 9 7
3 3 3 3 4 4 5 4 5 5 7 6 8 8 8 9 9 15 15 11 10 15 19 11 10 11 10 10 10 10 10 10 11 12 11 10 8 8 10 10 9 10 10
3 3 4 4 3 4 3 5 14 19 23 24 24 18 11 21 26 23 26 27 28 29 15 12 12 10 10 11 11 11 10 15 11 10 11 10 9 10 9 8 9 12 12
4 4 4 6 4 3 4 5 7 9 19 21 22 24 25 23 24 25 27 28 29 25 12 11 11 10 11 12 10 9 11 10 11 11 11 10 9 10 12 10 11 12 13
4 12 5 5 4 4 5 7 6 7 8 8 14 17 20 24 25 26 26 24 13 13 10 11 11 11 9 11 11 11 11 11 11 10 9 12 10 11 9 11 12 13 13
4 4 5 5 5 8 6 7 7 8 8 8 8 15 17 22 24 25 26 11 10 10 11 11 11 10 10 11 12 11 11 12 12 12 11 12 11 11 12 12 13 21 20
5 15 14 6 6 6 6 7 8 9 9 9 8 8 8 12 9 10 9 10 10 11 10 11 11 11 11 12 10 11 10 12 12 12 11 11 11 12 13 13 14 14 14
4 5 13 8 6 6 7 7 8 9 9 9 9 9 21 13 12 11 11 11 11 11 12 12 11 12 11 11 11 11 11 11 12 12 11 11 11 12 14 14 14 15 14
5 6 6 6 6 7 7 8 9 10 10 9 10 11 27 13 11 11 11 11 12 12 11 11 11 11 11 11 12 11 12 12 13 12 12 12 13 13 13 13 14 13 14
6 6 6 7 7 12 9 6 7 9 10 11 11 11 11 11 11 12 12 12 12 12 11 12 12 12 12 12 12 12 12 12 12 12 12 12 12 12 13 13 14 15 15
7 7 8 7 5 6 8 9 10 18 16 13 13 13 12 12 13 14 13 12 12 12 12 12 13 16 14 14 12 14 11 12 11 12 16 12 13 14 13 14 16 19 17
5 2 4 6 7 8 10 11 12 12 12 12 13 13 13 13 13 14 13 13 12 13 15 13 12 16 20 22 20 21 23 31 23 22 14 17 18 18 16 15 16 16 19
2 5 6 6 7 8 9 11 12 12 13 13 13 13 14 14 14 14 14 14 13 13 16 13 15 20 22 19 20 26 32 32 25 29 18 15 12 14 13 17 23 16 18
Wind_Direction
197 203 219 235 244 271 297 321 329 327 327 323 325 324 326 326 328 326 316 312 318 307 310 307 308 314 302 306 327 257 230 215 236 256 236 198 202 194 199 207 201 202 208
183 184 212 219 238 272 288 301 313 308 314 315 317 319 317 320 319 317 315 316 313 310 305 306 307 306 302 308 299 300 225 204 225 246 215 203 201 208 176 193 197 201 199
185 189 200 216 218 235 262 281 294 298 306 311 314 310 312 312 313 312 310 309 307 309 303 298 300 308 307 316 316 304 271 202 198 204 238 276 142 186 123 127 187 188 201
181 192 200 203 211 223 249 275 291 297 298 298 299 297 299 303 303 299 303 309 305 299 298 296 289 291 299 308 312 311 309 258 195 198 185 216 200 191 124 157 183 182 170
185 192 204 192 196 222 246 256 273 283 290 294 298 299 297 298 296 306 306 302 302 306 300 294 295 289 292 294 293 290 291 309 236 206 203 183 206 182 198 179 185 131 191
185 198 186 186 198 213 229 246 260 275 280 291 289 292 296 298 302 306 308 301 306 309 305 302 299 298 291 292 290 291 284 277 292 217 214 224 220 220 169 171 145 134 211
185 183 181 185 200 205 224 242 262 275 289 283 285 287 286 289 301 306 310 303 301 302 301 302 303 300 303 293 290 287 288 279 282 257 217 213 217 202 179 184 189 160 185
179 177 173 180 199 207 217 235 249 264 273 281 286 288 287 288 299 306 306 306 300 289 292 298 298 297 291 291 288 284 286 285 282 274 237 228 224 192 184 186 173 115 70
179 178 178 175 186 196 219 236 254 267 273 271 277 278 282 287 296 299 307 301 293 293 291 291 290 293 295 295 294 279 281 280 278 279 266 245 209 171 168 145 169 174 175
173 174 167 173 185 195 206 223 236 238 274 281 283 280 283 288 293 300 299 293 295 295 294 297 302 300 299 299 300 296 294 295 318 288 294 241 212 179 174 186 173 190 158
136 135 155 162 179 200 209 200 242 262 266 272 279 286 284 279 279 287 294 292 290 288 291 298 295 295 294 291 294 297 294 298 297 291 282 280 216 195 190 194 186 193 186
120 132 161 179 198 192 199 237 236 249 255 265 277 287 281 274 280 287 288 289 292 297 300 293 291 294 294 295 294 290 289 288 281 281 269 268 243 201 196 199 191 198 192
137 150 175 208 215 209 201 243 255 242 251 266 275 272 275 278 276 282 286 295 297 293 285 285 291 293 294 291 288 287 288 283 273 272 256 254 261 211 196 186 135 122 104
149 164 177 214 243 234 242 227 221 236 246 256 264 267 269 270 272 272 270 282 282 287 284 284 283 288 291 287 289 287 276 272 268 261 251 248 265 197 182 180 180 171 171
150 183 213 231 253 266 252 230 233 238 231 247 249 249 256 263 267 268 277 292 288 284 291 289 289 284 283 282 277 273 274 268 261 269 250 236 239 201 185 185 182 170 178
203 230 240 240 243 249 248 278 273 271 271 268 273 272 264 272 281 290 292 290 290 289 286 282 280 282 282 281 280 279 273 272 267 277 258 237 214 206 189 184 185 180 181
224 255 263 270 262 245 256 247 269 288 280 276 277 279 279 277 288 291 288 290 289 289 279 279 279 282 280 274 277 279 274 266 270 268 286 239 205 207 190 188 189 182 188
227 257 241 233 232 236 246 254 255 256 268 277 279 279 279 281 286 290 292 293 288 282 276 276 275 275 279 278 278 276 276 276 276 279 278 262 198 196 193 188 192 185 184
245 241 245 251 251 253 249 250 251 253 255 260 270 280 279 287 287 287 289 286 281 276 270 267 265 272 275 276 272 274 278 278 277 275 272 283 203 192 202 191 192 184 181
240 255 254 225 235 246 249 251 255 258 261 264 261 253 265 289 279 273 265 265 266 265 266 273 271 273 272 269 271 273 274 274 275 273 272 276 230 193 199 193 190 182 186
238 250 266 267 259 255 258 260 259 260 258 257 254 255 266 271 274 275 274 269 267 267 267 267 268 267 266 268 268 268 270 270 271 271 276 277 239 200 201 197 192 187 178
233 243 250 248 252 254 255 254 257 259 263 262 268 270 278 279 275 269 266 265 266 264 261 262 264 262 262 263 264 264 266 267 270 270 273 276 251 202 196 195 189 185 181
233 239 246 250 250 263 274 277 276 274 270 268 269 270 266 263 262 261 259 259 261 263 261 259 260 260 260 261 259 260 262 264 266 269 279 284 251 201 192 192 186 182 183
260 256 259 256 261 264 264 268 268 273 276 272 270 268 265 262 262 262 261 260 260 260 259 258 258 257 262 261 261 264 261 263 263 270 271 266 281 212 192 190 187 185 184
256 276 280 274 270 272 276 276 273 271 268 266 265 263 262 260 259 258 258 258 257 258 259 258 257 258 258 259 259 260 261 267 271 266 269 264 279 215 194 189 185 185 181
269 281 273 269 267 267 268 270 270 269 267 266 264 263 262 261 259 259 258 257 255 255 257 257 257 256 260 262 262 263 265 267 266 268 262 256 270 220 193 192 186 180 176